Torna al catalogo

STARLINK-30558

AttivoComunicazioniVLEO
NORAD 58060·PAYLOAD·🇺🇸 United States

Lanciato Oct 13, 2023 da Cape Canaveral Space Force Station

Loading…

Prossimi Passaggi (prossime 24 ore)

TLE

AggiornatoSource: CelesTrak SupGP

Epoca: Sep 14, 2026, 14:54 UTC

1 58060C 23158K   26257.62131944 -.00008041  00000+0 -29134-3 0  2573
2 58060  43.0023  40.3104 0001411 265.0105  21.8967 15.27571177    18

Traccia STARLINK-30558 in tempo reale con AllMySat

Download on the App Store